[[{"header":{"parameterUnit":"m.s-1","parameterCategory":1,"la1":30.2992,"la2":30.254,"lo1":-89.0895,"lo2":-89.0443,"dy":0.0025,"dx":0.0025,"nx":19,"ny":19,"refTime":"2026-04-08T03:00:00:Z","depth":0,"parameterNumber":2,"parameterNumberName":"U-component_of_WINDS"},"data":[0,0,0,-6.7646,-6.7649,-6.775,-6.7751,-6.7928,-6.793,0,0,0,0,0,0,0,0,0,0,0,-6.7644,-6.7646,-6.7646,-6.765,-6.775,-6.7751,-6.7927,-6.793,0,0,0,0,0,0,0,0,0,0,0,-6.7643,-6.7646,-6.7648,-6.765,-6.775,-6.7751,-6.7927,-6.7834,0,0,0,0,0,0,0,0,0,0,-6.7728,-6.7752,-6.7645,-6.7649,-6.7651,-6.775,-6.7751,-6.7829,-6.784,-6.7902,0,-6.7964,0,-6.795,-6.7945,-6.7945,0,0,0,-6.7629,-6.7743,-6.7745,-6.7649,-6.7652,-6.775,-6.7699,-6.7834,-6.7847,-6.7917,-6.7966,-6.7971,-6.7953,-6.7946,-6.7947,-6.8374,-6.8376,0,0,-6.7624,-6.7678,-6.7737,-6.7755,-6.7741,-6.7696,-6.7703,-6.7841,-6.7898,-6.7966,-6.7974,-6.7956,-6.7947,-6.7949,-6.8371,-6.8374,0,0,0,-6.7621,-6.7675,-6.7672,-6.7749,-6.7764,-6.77,-6.7707,-6.7892,-6.7887,-6.7976,-6.7958,-6.7949,-6.7951,-6.8367,-6.8372,-6.8572,0,0,0,-6.7617,-6.7673,-6.7671,-6.7705,-6.7762,-6.7829,-6.7756,-6.7877,-6.7891,-6.7957,-6.7949,-6.7954,-6.8364,-6.837,-6.8559,-6.8659,0,0,0,-6.7628,-6.7674,-6.7698,-6.7708,-6.7753,-6.7825,-6.7827,-6.7879,-6.7881,-6.7946,-6.7954,-6.8362,-6.8369,-6.8548,-6.864,-6.8789,0,0,0,-6.7656,-6.7873,-6.7702,-6.7938,-6.7753,-6.7947,-6.7826,-6.7968,-6.8047,-6.795,-6.8364,-6.8372,-6.8545,-6.8628,-6.8777,-6.8926,-6.8992,0,0,-6.7961,-6.7912,-6.8046,-6.7896,-6.8135,-6.7927,-6.8196,-6.8217,-6.8174,-6.831,-6.8319,-6.8564,-6.8638,-6.8786,-6.934,-6.9393,0,0,0,-6.8161,-6.8259,-6.831,-6.8388,-6.8409,-6.8436,-6.841,-6.8418,-6.8531,-6.8254,-6.8654,-6.8697,-6.8782,-6.8851,-6.8896,-6.8967,-6.8405,-6.8404,-6.8403,-6.8672,-6.8604,-6.8823,-6.8769,-6.8846,-6.8817,-6.8874,-6.888,-6.8789,-6.8885,-6.8926,-6.927,-6.9352,-6.9386,-6.946,-6.8996,-6.8997,-6.8998,-6.8998,-6.9114,-6.9244,-6.9118,-6.9285,-6.9214,-6.9354,-6.9336,-6.9267,-6.9389,-6.9233,-6.9304,-6.9143,-6.9446,-6.9508,-6.9013,-6.901,-6.9008,-6.9007,-6.9006,-6.9444,-6.9494,-6.9499,-6.9606,-6.9696,-6.9632,-6.9756,-6.9685,-6.9619,-6.9689,-6.9727,-6.9724,-6.9714,-6.9711,-6.9713,-6.9714,-6.9715,-6.9716,-6.9717,-6.9785,-6.9784,-6.9896,-6.9938,-6.9979,-7.0025,-6.9999,-7.0038,-7.0064,-7.0003,-7.0003,-6.9906,-6.9487,-6.9385,-6.9735,-6.9732,-6.9729,-6.9728,-6.9726,-7.0264,-7.0145,-7.0318,-7.036,-7.0404,-7.05,-7.0407,-7.0494,-7.0515,-7.058,-7.0466,-7.0167,-7.0112,-7.0076,-6.9992,-7.0477,-7.0477,-7.0477,-7.0477,-7.0545,-7.051,-7.0672,-7.0744,-7.0806,-7.0741,-7.0942,-7.0925,-7.0888,-7.0898,-7.0816,-7.0697,-7.0663,-7.0629,-7.0581,-7.0501,-7.1106,-7.1106,-7.1107,-7.0838,-7.0805,-7.099,-7.0951,-7.098,-7.1008,-7.1196,-7.1285,-7.1218,-7.1131,-7.0905,-7.0879,-7.0685,-7.0625,-7.0536,-7.0462,-7.0315,0,0]},{"header":{"parameterUnit":"m.s-1","parameterCategory":1,"la1":30.2992,"la2":30.254,"lo1":-89.0895,"lo2":-89.0443,"dy":0.0025,"dx":0.0025,"nx":19,"ny":19,"refTime":"2026-04-08T03:00:00:Z","depth":0,"parameterNumber":3,"parameterNumberName":"V-component_of_WINDS"},"data":[0,0,0,-1.2381,-1.2381,-1.2388,-1.2388,-1.2403,-1.2403,0,0,0,0,0,0,0,0,0,0,0,-1.2383,-1.2384,-1.2381,-1.2381,-1.2388,-1.2388,-1.2403,-1.2403,0,0,0,0,0,0,0,0,0,0,0,-1.2383,-1.2384,-1.2384,-1.2381,-1.2388,-1.2388,-1.2403,-1.2395,0,0,0,0,0,0,0,0,0,0,-1.2388,-1.2394,-1.2384,-1.2384,-1.2381,-1.2388,-1.2388,-1.2395,-1.2396,-1.2402,0,-1.241,0,-1.2407,-1.2404,-1.2404,0,0,0,-1.2378,-1.2394,-1.2391,-1.2384,-1.2382,-1.2388,-1.2384,-1.2395,-1.2396,-1.2404,-1.241,-1.241,-1.2407,-1.2404,-1.2404,-1.2453,-1.2453,0,0,-1.2378,-1.2387,-1.2391,-1.2392,-1.2392,-1.2384,-1.2384,-1.2396,-1.2403,-1.241,-1.2411,-1.2407,-1.2404,-1.2405,-1.2452,-1.2453,0,0,0,-1.2379,-1.2387,-1.2384,-1.2392,-1.2393,-1.2384,-1.2385,-1.2403,-1.2401,-1.2411,-1.2407,-1.2405,-1.2405,-1.2452,-1.2453,-1.2479,0,0,0,-1.2379,-1.2387,-1.2384,-1.239,-1.2392,-1.2398,-1.2392,-1.24,-1.2401,-1.2407,-1.2405,-1.2405,-1.2452,-1.2452,-1.2477,-1.249,0,0,0,-1.2382,-1.2388,-1.239,-1.239,-1.2394,-1.2397,-1.2396,-1.24,-1.2399,-1.2404,-1.2405,-1.2451,-1.2452,-1.2476,-1.2487,-1.2504,0,0,0,-1.2387,-1.2415,-1.2391,-1.242,-1.2394,-1.2414,-1.2396,-1.2411,-1.2418,-1.2405,-1.2452,-1.2452,-1.2475,-1.2486,-1.2503,-1.2519,-1.2527,0,0,-1.2427,-1.242,-1.2436,-1.2415,-1.2441,-1.2412,-1.2442,-1.2441,-1.2434,-1.2447,-1.2448,-1.2478,-1.2487,-1.2504,-1.257,-1.2576,0,0,0,-1.2451,-1.2463,-1.2468,-1.2475,-1.2474,-1.2474,-1.2467,-1.2466,-1.2476,-1.2442,-1.2488,-1.2494,-1.2503,-1.251,-1.2516,-1.2523,-1.2457,-1.2456,-1.2456,-1.252,-1.2508,-1.2533,-1.2522,-1.2529,-1.252,-1.2524,-1.2521,-1.2509,-1.2519,-1.2523,-1.2565,-1.2574,-1.2578,-1.2585,-1.2531,-1.2532,-1.2532,-1.2532,-1.2576,-1.259,-1.257,-1.2587,-1.2574,-1.2588,-1.258,-1.257,-1.2581,-1.2561,-1.2569,-1.2548,-1.2585,-1.2591,-1.2534,-1.2533,-1.2533,-1.2533,-1.2533,-1.2619,-1.2623,-1.2621,-1.2629,-1.2636,-1.2623,-1.2634,-1.2622,-1.2611,-1.2618,-1.262,-1.2619,-1.2616,-1.262,-1.262,-1.262,-1.262,-1.262,-1.262,-1.2664,-1.2661,-1.2672,-1.2671,-1.2673,-1.2674,-1.2664,-1.2666,-1.2664,-1.2655,-1.2655,-1.2639,-1.2591,-1.2579,-1.2623,-1.2622,-1.2622,-1.2622,-1.2622,-1.2724,-1.2708,-1.2724,-1.2726,-1.2724,-1.2731,-1.2715,-1.2718,-1.2718,-1.2723,-1.2706,-1.2673,-1.2665,-1.266,-1.265,-1.2709,-1.2709,-1.2709,-1.2709,-1.276,-1.2754,-1.2767,-1.277,-1.2772,-1.2758,-1.2776,-1.2768,-1.2758,-1.2756,-1.2746,-1.2731,-1.2727,-1.2722,-1.2716,-1.2706,-1.2778,-1.2778,-1.2778,-1.2795,-1.2788,-1.2806,-1.2795,-1.2792,-1.2789,-1.2804,-1.2809,-1.2794,-1.2781,-1.2755,-1.2752,-1.2728,-1.2721,-1.2708,-1.2699,-1.2681,0,0]}]]